This demonstration page uses our WeatherBlox Daily Observations layout. Learn more.

Left ArrowRight Arrow

41.12389, -100.76542

Hourly Observations for May 12, 2017

Temp ( °F °C ) Dew Point ( °F °C ) Humidity (%) Winds ( mph kmh ) Pressure ( in mb ) Visibility ( mi km ) Precip ( " mm )
12:53 am 00:53 Clear 45 7.2 39 3.9 80 80 Calm 30.14 1021 10 16 0.00 0.00
1:53 am 01:53 Clear 40 4.4 38 3.3 93 93 NW 3 6 30.16 1021 10 16 0.00 0.00
2:53 am 02:53 Clear 40 4.4 38 3.3 93 93 NW 8 13 30.14 1021 10 16 0.00 0.00
3:53 am 03:53 Clear 39 3.9 36 2.2 89 89 WNW 3 6 30.15 1021 10 16 0.00 0.00
4:53 am 04:53 Clear 41 5 38 3.3 89 89 Calm 30.14 1021 10 16 0.00 0.00
5:53 am 05:53 Clear 39 3.9 37 2.8 93 93 Calm 30.14 1021 10 16 0.00 0.00
6:53 am 06:53 Sunny 38 3.3 36 2.2 93 93 Calm 30.14 1021 10 16 0.00 0.00
7:53 am 07:53 Sunny 47 8.3 43 6.1 86 86 WNW 3 6 30.13 1020 10 16 0.00 0.00
8:53 am 08:53 Sunny 53 11.7 45 7.2 74 74 W 3 6 30.14 1021 10 16 0.00 0.00
9:53 am 09:53 Sunny 60 15.6 45 7.2 58 58 WSW 6 9 30.11 1020 10 16 0.00 0.00
10:53 am 10:53 Sunny 65 18.3 44 6.7 47 47 VRB 3 6 30.10 1019 10 16 0.00 0.00
11:53 am 11:53 Sunny 69 20.6 39 3.9 33 33 SSE 9 15 30.09 1019 10 16 0.00 0.00
12:53 pm 12:53 Sunny 71 21.7 38 3.3 30 30 SSW 8 13 30.07 1018 10 16 0.00 0.00
1:53 pm 13:53 Sunny 72 22.2 39 3.9 30 30 S 12 19 30.05 1018 10 16 0.00 0.00
2:53 pm 14:53 Sunny 73 22.8 38 3.3 28 28 S 13 20 30.03 1017 10 16 0.00 0.00
3:53 pm 15:53 Sunny 73 22.8 40 4.4 30 30 SSW 12 19 30.01 1016 10 16 0.00 0.00
4:53 pm 16:53 Sunny 74 23.3 40 4.4 29 29 SSE 10 17 29.98 1015 10 16 0.00 0.00
5:53 pm 17:53 Sunny 73 22.8 38 3.3 28 28 S 14 22 29.97 1015 10 16 0.00 0.00
6:53 pm 18:53 Sunny 71 21.7 39 3.9 31 31 S 14 22 29.96 1015 10 16 0.00 0.00
7:53 pm 19:53 Sunny 68 20 39 3.9 35 35 S 12 19 29.95 1014 10 16 0.00 0.00
8:53 pm 20:53 Clear 63 17.2 39 3.9 41 41 SSE 9 15 29.95 1014 10 16 0.00 0.00
9:53 pm 21:53 Clear 59 15 40 4.4 49 49 SSE 7 11 29.95 1014 10 16 0.00 0.00
10:53 pm 22:53 Clear 57 13.9 41 5 55 55 SSE 8 13 29.95 1014 10 16 0.00 0.00
11:53 pm 23:53 Clear 57 13.9 40 4.4 53 53 SSE 9 15 29.93 1014 10 16 0.00 0.00

Powered by AerisWeather